Regional Weather Roundup
Issued by NWS

Home | Current Version | Previous Version | Text Only | Print | Product List | Glossary Off
Versions: 1 2 3 4 5 6 7 8 9 10 11 12 13 14 15 16 17 18 19 20 21 22 23 24 25 26 27 28 29 30 31 32 33 34 35 36 37 38 39 40 41 42 43 44 45 46 47 48 49 50

222
ASUS45 KCYS 291310
RWRWY

WYOMING REGIONAL WEATHER ROUNDUP
NATIONAL WEATHER SERVICE CHEYENNE WY
700 AM MDT MON MAY 29 2017

NOTE:  "FAIR" INDICATES FEW OR NO CLOUDS BELOW 12,000 FEET
WITH NO SIGNIFICANT WEATHER AND/OR OBSTRUCTIONS TO VISIBILITY.

WYZ001-291400-
YELLOWSTONE NATIONAL PARK

CITY           SKY/WX    TMP DP  RH WIND       PRES   REMARKS
LK YELLOWSTONE   N/A     30  29  96 CALM      30.40R
W YELLOWSTONE  NOT AVBL

$$
WYZ002>013-054>058-071-098>099-291400-
NORTHERN WYOMING

CITY           SKY/WX    TMP DP  RH WIND       PRES   REMARKS
JACKSON        SUNNY     37  34  87 N3        30.34S
CODY           FAIR      48  40  73 CALM      30.30R
GREYBULL       FAIR      46  38  73 E5        30.24R
WORLAND        FAIR      49  48  97 S5        30.25R
SHERIDAN       FAIR      53  42  66 NW7       30.24R
BUFFALO        FAIR      51  40  65 NW7       30.26R
GILLETTE       PTSUNNY   48  42  80 W10       30.21R
HULETT         FAIR      48  32  53 W5        30.21S
NEWCASTLE      FAIR      45  32  61 NW8       30.20R

$$
WYZ014>020-022>026-101>103-291400-
CENTRAL WYOMING

CITY           SKY/WX    TMP DP  RH WIND       PRES   REMARKS
BIG PINEY      FAIR      40  34  79 NE5       30.35R
PINEDALE       FAIR      36  32  87 NW6       30.37R WCI  31
DUBOIS         FAIR      37  32  81 NW9       30.34S WCI  31
LANDER         FAIR      46  41  82 CALM      30.27S
RIVERTON       FAIR      48  43  82 NW12      30.28S
CASPER         FAIR      46  43  89 W7        30.27R
DOUGLAS        FAIR      47  42  83 NW6       30.25R

$$
WYZ021-027>030-104>119-291400-
SOUTHERN WYOMING

CITY           SKY/WX    TMP DP  RH WIND       PRES   REMARKS
EVANSTON       FAIR      43  34  70 E7        30.31R
KEMMERER         N/A     43  34  70 N7        30.34S
FORT BRIDGER   FAIR      43  36  75 N3        30.35R
ROCK SPRINGS   FAIR      45  37  73 E3        30.32R
DIXON            N/A     43  34  71 E6        30.32R
RAWLINS        FAIR      45  39  79 CALM      30.31S
SARATOGA       FAIR      41  34  75 CALM      30.33S
LARAMIE        FAIR      39  35  86 S6        30.31S WCI  35
CHEYENNE       FAIR      48  37  65 W8        30.27S
TORRINGTON     FAIR      51  43  74 NW8       30.19S
PINE BLUFFS    FAIR      46  43  87 CALM      30.25S

$$




USA.gov is the U.S. government's official web portal to all federal, state and local government web resources and services.